User: anonymous   Login
Location: Unspecified
(0.0000°N, 0.0000°E)
Time: 18:51:53
(UTC+00:00)
Language:

ANTELSAT - Orbit

View from above orbital plane
View from above orbital plane
View from above satellite
View from above satellite

Ground track
Ground track

The orbit data is extracted from the following two-line orbital elements,

1 40034U 14033AA  19340.62147433 +.00000162 +00000-0 +31462-4 0  9998
2 40034 097.7355 200.3145 0057308 264.8509 094.6158 14.74173785293320
Epoch (UTC): 06 December 2019 14:54:55
Eccentricity: 0.0057308
inclination: 97.7355°
perigee height: 607 km
apogee height: 688 km
right ascension of ascending node: 200.3145°
argument of perigee: 264.8509°
revolutions per day: 14.74173785
mean anomaly at epoch: 94.6158°
orbit number at epoch: 29332

The dashed part of the orbit path shows where the satellite is in the earth's shadow,  

DLR